Regional Weather Roundup
Issued by NWS Spokane, WA

Home | Current Version | Previous Version | Text Only | Print | Product List | Glossary On
Versions: 1 2 3 4 5 6 7 8 9 10 11 12 13 14 15 16 17 18 19 20 21 22 23 24 25 26 27 28 29 30 31 32 33 34 35 36 37 38 39 40 41 42 43 44 45 46 47 48 49 50
939
NZUS01 KOTX 090810
RWROTX

Eastern Washington/Northern Idaho Roundup
National Weather Service, Spokane WA
1200 AM PST FRI DEC 09 2016

Note: "fair" indicated few or no clouds below 12,000 feet with no
significant weather and/or obstructions to visibility.

...Northeast Washington and Northern Idaho Panhandle...

CITY           SKY/WX    TMP DP  RH WIND       PRES   REMARKS
Spokane Intl   FLURRIES  19   5  54 E13       30.10S WCI   6
Spokane Downto CLOUDY    22   7  52 NE7       30.15S WCI  13
Coeur d Alene  MOCLDY    17   5  59 N17       30.13F WCI   1
Deer Park      CLOUDY    19   0  43 NE13      30.14S WCI   6
Sandpoint      PTCLDY    18   1  49 NE18G25   30.19F WCI   2
Bonners Ferry  FAIR       9   1  72 CALM      30.24S

...Southeast Washington and southern Idaho Panhandle...

CITY           SKY/WX    TMP DP  RH WIND       PRES   REMARKS
Walla Walla    CLOUDY    20  16  84 S7        30.16R WCI  11
Pullman/Moscow LGT SNOW  22  19  89 E12       30.07R FOG     WCI  10
Lewiston       CLOUDY    24  21  88 E6        30.12R WCI  17
Lowell           N/A     24  19  81 CALM      30.18F
Grangeville    CLOUDY    18  16  93 MISG      30.01F

...Columbia Basin...

CITY           SKY/WX    TMP DP  RH WIND       PRES   REMARKS
Ephrata        LGT SNOW  22  14  71 NE13      30.19R WCI  10
Moses Lake     FLURRIES  23  15  71 NE12      30.19F WCI  12
Pasco          CLOUDY    25  23  92 NW10      30.22S WCI  15
Richland       CLOUDY    26  24  90 MISG      30.24R
Hermiston      CLOUDY    23  20  88 CALM      30.21R
Pendleton      LGT SNOW  18  14  84 CALM      30.13R FOG

...East Slopes Cascades...

CITY           SKY/WX    TMP DP  RH WIND       PRES   REMARKS
The Dalles     CLOUDY    25  22  88 CALM      30.26R
Yakima         FLURRIES  24  20  84 W7        30.20R WCI  16
Ellensburg     CLOUDY    22  17  81 CALM      30.14R
Stampede Pass  HVY SNOW  12  11  95 VRB7      29.93R VSB 1/4 WCI   1
Wenatchee      LGT SNOW  21  20  96 CALM      30.21R FOG
Omak           CLOUDY    20   8  60 N12       30.22R WCI   8
Sunnyside      CLOUDY    22  19  89 W5        30.22R WCI  16

...Southern British Columbia...

CITY           SKY/WX    TMP DP  RH WIND       PRES   REMARKS
Penticton      MOCLDY    19   7  58 N3        30.27S
Cranbrook      PTCLDY    -2  -8  78 SW3       30.25R
Osoyoos          N/A     21  12  68 NW5         N/A  WCI  15
Creston          N/A     10   0  61 NE10G18     N/A  WCI  -3

...Western Montana...

CITY           SKY/WX    TMP DP  RH WIND       PRES   REMARKS
Kalispell      MOSUNNY    5  -6  60 N17       30.20F WCI -14
Libby            N/A      9   3  78 CALM      30.24F
Missoula       LGT SNOW  13  10  88 W3        30.16F FOG

...Neighboring Cities...

CITY           SKY/WX    TMP DP  RH WIND       PRES   REMARKS
Seattle        LGT SNOW  31  28  89 SE6       29.96R FOG     WCI  25
Portland       FRZ RAIN  32  27  81 SE16      30.04R WCI  21
Boise          CLOUDY    27  24  89 N9        30.12R WCI  18
Great Falls    CLOUDY    -3  -7  82 NE5       30.29F WCI -13
Calgary        CRYSTALS  -6 -11  77 SE7       30.33S WCI -20



USA.gov is the U.S. government's official web portal to all federal, state and local government web resources and services.